timestamp,wind_dir_avg,wind_spd_max_dir,wind_spd_avg,wind_spd_gust,battery_voltage,lat,long
2017-11-20 00:00:00+00:00,267.0,268.0,3.44,3.9,,47.59359,-54.27349
2017-11-20 00:10:00+00:00,248.0,246.0,3.09,4.07,,47.59359,-54.27349
2017-11-20 00:20:00+00:00,253.0,246.0,1.95,2.38,,47.59359,-54.27349
2017-11-20 00:30:00+00:00,235.0,236.0,3.3,3.64,,47.59359,-54.27349
2017-11-20 00:40:00+00:00,241.0,241.0,3.02,3.43,,47.59359,-54.27349
2017-11-20 00:50:00+00:00,233.0,232.0,3.31,3.99,,47.59359,-54.27349
2017-11-20 01:00:00+00:00,228.0,230.0,2.01,2.49,,47.59359,-54.27349
2017-11-20 01:10:00+00:00,235.0,236.0,1.56,2.37,,47.59359,-54.27349
2017-11-20 01:20:00+00:00,238.0,227.0,2.02,2.51,,47.59359,-54.27349
2017-11-20 01:30:00+00:00,236.0,233.0,3.54,3.96,,47.59359,-54.27349
2017-11-20 01:40:00+00:00,242.0,240.0,2.15,3.01,,47.59359,-54.27349
2017-11-20 01:50:00+00:00,236.0,240.0,3.41,4.12,,47.59359,-54.27349
2017-11-20 02:00:00+00:00,242.0,246.0,2.7,2.99,,47.59359,-54.27349
2017-11-20 02:10:00+00:00,217.0,225.0,2.05,2.7,,47.59359,-54.27349
2017-11-20 02:20:00+00:00,178.0,192.0,3.24,3.85,,47.59359,-54.27349
2017-11-20 02:30:00+00:00,181.0,183.0,4.88,5.33,,47.59359,-54.27349
2017-11-20 02:40:00+00:00,165.0,170.0,4.91,5.37,,47.59359,-54.27349
2017-11-20 02:50:00+00:00,188.0,194.0,4.68,5.41,,47.59359,-54.27349
2017-11-20 03:00:00+00:00,185.0,189.0,4.04,4.38,,47.59359,-54.27349
2017-11-20 03:10:00+00:00,182.0,186.0,3.78,4.25,,47.59359,-54.27349
2017-11-20 03:20:00+00:00,180.0,183.0,4.23,4.87,,47.59359,-54.27349
2017-11-20 03:30:00+00:00,183.0,188.0,4.31,4.75,,47.59359,-54.27349
2017-11-20 03:40:00+00:00,168.0,174.0,4.04,5.33,,47.59359,-54.27349
2017-11-20 03:50:00+00:00,180.0,178.0,4.95,5.69,,47.59359,-54.27349
2017-11-20 04:00:00+00:00,163.0,159.0,4.58,5.14,,47.59359,-54.27349
2017-11-20 04:10:00+00:00,174.0,179.0,4.38,5.04,,47.59359,-54.27349
2017-11-20 04:20:00+00:00,184.0,187.0,5.96,7.64,,47.59359,-54.27349
2017-11-20 04:30:00+00:00,175.0,176.0,5.94,6.56,,47.59359,-54.27349
2017-11-20 04:40:00+00:00,178.0,178.0,6.17,6.58,,47.59359,-54.27349
2017-11-20 04:50:00+00:00,182.0,186.0,5.36,6.11,,47.59359,-54.27349
2017-11-20 05:00:00+00:00,179.0,177.0,5.91,6.81,,47.59359,-54.27349
2017-11-20 05:10:00+00:00,170.0,165.0,4.77,5.32,,47.59359,-54.27349
2017-11-20 05:20:00+00:00,175.0,177.0,5.29,5.89,,47.59359,-54.27349
2017-11-20 05:30:00+00:00,174.0,170.0,4.85,5.3,,47.59359,-54.27349
2017-11-20 05:40:00+00:00,173.0,177.0,4.05,4.42,,47.59359,-54.27349
2017-11-20 05:50:00+00:00,156.0,158.0,4.31,4.97,,47.59359,-54.27349
2017-11-20 06:00:00+00:00,153.0,147.0,4.27,4.59,,47.59359,-54.27349
2017-11-20 06:10:00+00:00,140.0,140.0,3.16,4.22,,47.59359,-54.27349
2017-11-20 06:20:00+00:00,140.0,134.0,3.83,4.7,,47.59359,-54.27349
2017-11-20 06:30:00+00:00,136.0,134.0,3.88,4.72,,47.59359,-54.27349
2017-11-20 06:40:00+00:00,149.0,153.0,2.89,3.22,,47.59359,-54.27349
2017-11-20 06:50:00+00:00,144.0,149.0,2.71,3.25,,47.59359,-54.27349
2017-11-20 07:00:00+00:00,141.0,147.0,2.31,2.84,,47.59359,-54.27349
2017-11-20 07:10:00+00:00,138.0,152.0,2.55,3.02,,47.59359,-54.27349
2017-11-20 07:20:00+00:00,138.0,135.0,2.16,2.55,,47.59359,-54.27349
2017-11-20 07:30:00+00:00,79.0,74.0,1.04,1.86,,47.59359,-54.27349
2017-11-20 07:40:00+00:00,90.0,19.0,0.14,0.42,,47.59359,-54.27349
2017-11-20 07:50:00+00:00,47.0,59.0,1.18,1.56,,47.59359,-54.27349
2017-11-20 08:00:00+00:00,67.0,52.0,2.51,3.04,,47.59359,-54.27349
2017-11-20 08:10:00+00:00,120.0,120.0,1.96,3.19,,47.59359,-54.27349
2017-11-20 08:20:00+00:00,131.0,133.0,2.48,3.22,,47.59359,-54.27349
2017-11-20 08:30:00+00:00,143.0,142.0,3.96,4.79,,47.59359,-54.27349
2017-11-20 08:40:00+00:00,101.0,107.0,2.5,3.79,,47.59359,-54.27349
2017-11-20 08:50:00+00:00,104.0,128.0,3.43,5.31,,47.59359,-54.27349
2017-11-20 09:00:00+00:00,139.0,142.0,5.69,6.89,,47.59359,-54.27349
2017-11-20 09:10:00+00:00,144.0,150.0,5.09,6.47,,47.59359,-54.27349
2017-11-20 09:20:00+00:00,142.0,135.0,3.81,4.71,,47.59359,-54.27349
2017-11-20 09:30:00+00:00,157.0,164.0,2.18,3.26,,47.59359,-54.27349
2017-11-20 09:40:00+00:00,194.0,182.0,6.1,7.38,,47.59359,-54.27349
2017-11-20 09:50:00+00:00,205.0,206.0,4.7,6.22,,47.59359,-54.27349
2017-11-20 10:00:00+00:00,220.0,200.0,4.28,5.19,,47.59359,-54.27349
2017-11-20 10:10:00+00:00,206.0,209.0,6.28,8.0,,47.59359,-54.27349
2017-11-20 10:20:00+00:00,179.0,185.0,9.77,10.93,,47.59359,-54.27349
2017-11-20 10:30:00+00:00,176.0,179.0,11.89,14.6,,47.59359,-54.27349
2017-11-20 10:40:00+00:00,179.0,176.0,11.33,14.13,,47.59359,-54.27349
2017-11-20 10:50:00+00:00,184.0,180.0,10.12,11.35,,47.59359,-54.27349
2017-11-20 11:00:00+00:00,188.0,190.0,12.23,14.08,,47.59359,-54.27349
2017-11-20 11:10:00+00:00,200.0,204.0,13.57,19.2,,47.59359,-54.27349
2017-11-20 11:20:00+00:00,194.0,192.0,13.71,15.64,,47.59359,-54.27349
2017-11-20 11:30:00+00:00,198.0,191.0,14.37,17.26,,47.59359,-54.27349
2017-11-20 11:40:00+00:00,208.0,210.0,15.88,17.96,,47.59359,-54.27349
2017-11-20 11:50:00+00:00,211.0,219.0,15.74,17.87,,47.59359,-54.27349
2017-11-20 12:00:00+00:00,220.0,227.0,13.12,15.52,,47.59359,-54.27349
2017-11-20 12:10:00+00:00,217.0,215.0,13.23,14.63,,47.59359,-54.27349
2017-11-20 12:20:00+00:00,220.0,219.0,11.43,13.04,,47.59359,-54.27349
2017-11-20 12:30:00+00:00,228.0,228.0,9.85,11.33,,47.59359,-54.27349
2017-11-20 12:40:00+00:00,219.0,223.0,12.95,14.55,,47.59359,-54.27349
2017-11-20 12:50:00+00:00,228.0,227.0,11.96,15.11,,47.59359,-54.27349
2017-11-20 13:00:00+00:00,219.0,221.0,15.4,17.38,,47.59359,-54.27349
2017-11-20 13:10:00+00:00,221.0,217.0,14.3,15.76,,47.59359,-54.27349
2017-11-20 13:20:00+00:00,237.0,243.0,12.3,14.98,,47.59359,-54.27349
2017-11-20 13:30:00+00:00,232.0,244.0,11.36,13.75,,47.59359,-54.27349
2017-11-20 13:40:00+00:00,229.0,221.0,11.53,13.32,,47.59359,-54.27349
2017-11-20 13:50:00+00:00,228.0,220.0,12.97,15.59,,47.59359,-54.27349
2017-11-20 14:00:00+00:00,229.0,229.0,12.62,14.35,,47.59359,-54.27349
2017-11-20 14:10:00+00:00,222.0,219.0,10.69,12.65,,47.59359,-54.27349
2017-11-20 14:20:00+00:00,225.0,226.0,14.19,15.65,,47.59359,-54.27349
2017-11-20 14:30:00+00:00,234.0,240.0,10.08,11.81,,47.59359,-54.27349
2017-11-20 14:40:00+00:00,222.0,220.0,12.25,13.68,,47.59359,-54.27349
2017-11-20 14:50:00+00:00,229.0,231.0,10.32,12.26,,47.59359,-54.27349
2017-11-20 15:00:00+00:00,224.0,226.0,9.92,11.15,,47.59359,-54.27349
2017-11-20 15:10:00+00:00,230.0,230.0,8.15,10.28,,47.59359,-54.27349
2017-11-20 15:20:00+00:00,222.0,220.0,8.22,9.39,,47.59359,-54.27349
2017-11-20 15:30:00+00:00,219.0,216.0,9.59,10.49,,47.59359,-54.27349
2017-11-20 15:40:00+00:00,225.0,224.0,10.78,12.32,,47.59359,-54.27349
2017-11-20 15:50:00+00:00,232.0,232.0,10.4,11.92,,47.59359,-54.27349
2017-11-20 16:00:00+00:00,222.0,230.0,9.92,12.48,,47.59359,-54.27349
2017-11-20 16:10:00+00:00,225.0,226.0,9.24,10.38,,47.59359,-54.27349
2017-11-20 16:20:00+00:00,229.0,233.0,8.64,9.39,,47.59359,-54.27349
2017-11-20 16:30:00+00:00,213.0,210.0,7.01,7.87,,47.59359,-54.27349
2017-11-20 16:40:00+00:00,215.0,219.0,8.58,9.49,,47.59359,-54.27349
2017-11-20 16:50:00+00:00,224.0,224.0,9.68,11.22,,47.59359,-54.27349
2017-11-20 17:00:00+00:00,230.0,229.0,10.0,11.07,,47.59359,-54.27349
2017-11-20 17:10:00+00:00,229.0,226.0,6.59,8.12,,47.59359,-54.27349
2017-11-20 17:20:00+00:00,230.0,229.0,6.96,8.3,,47.59359,-54.27349
2017-11-20 17:30:00+00:00,222.0,229.0,6.86,8.92,,47.59359,-54.27349
2017-11-20 17:40:00+00:00,218.0,218.0,8.04,8.92,,47.59359,-54.27349
2017-11-20 17:50:00+00:00,223.0,216.0,8.21,9.43,,47.59359,-54.27349
2017-11-20 18:00:00+00:00,218.0,217.0,7.86,8.7,,47.59359,-54.27349
2017-11-20 18:10:00+00:00,226.0,227.0,8.12,8.93,,47.59359,-54.27349
2017-11-20 18:20:00+00:00,223.0,219.0,7.64,8.79,,47.59359,-54.27349
2017-11-20 18:30:00+00:00,218.0,221.0,6.54,7.41,,47.59359,-54.27349
2017-11-20 18:40:00+00:00,222.0,225.0,7.76,8.51,,47.59359,-54.27349
2017-11-20 18:50:00+00:00,226.0,229.0,8.66,9.7,,47.59359,-54.27349
2017-11-20 19:00:00+00:00,224.0,222.0,8.39,9.62,,47.59359,-54.27349
2017-11-20 19:10:00+00:00,226.0,224.0,8.38,9.31,,47.59359,-54.27349
2017-11-20 19:20:00+00:00,224.0,221.0,9.24,10.6,,47.59359,-54.27349
2017-11-20 19:30:00+00:00,227.0,231.0,8.99,10.3,,47.59359,-54.27349
2017-11-20 19:40:00+00:00,236.0,234.0,8.8,10.19,,47.59359,-54.27349
2017-11-20 19:50:00+00:00,226.0,227.0,8.57,9.72,,47.59359,-54.27349
2017-11-20 20:00:00+00:00,233.0,242.0,8.6,10.64,,47.59359,-54.27349
2017-11-20 20:10:00+00:00,239.0,235.0,9.3,11.33,,47.59359,-54.27349
2017-11-20 20:20:00+00:00,246.0,249.0,10.51,12.06,,47.59359,-54.27349
2017-11-20 20:30:00+00:00,246.0,245.0,10.84,12.69,,47.59359,-54.27349
2017-11-20 20:40:00+00:00,238.0,238.0,9.65,10.91,,47.59359,-54.27349
2017-11-20 20:50:00+00:00,240.0,238.0,9.78,13.63,,47.59359,-54.27349
2017-11-20 21:00:00+00:00,247.0,251.0,12.13,14.0,,47.59359,-54.27349
2017-11-20 21:10:00+00:00,250.0,253.0,11.06,13.51,,47.59359,-54.27349
2017-11-20 21:20:00+00:00,267.0,267.0,11.38,12.47,,47.59359,-54.27349
2017-11-20 21:30:00+00:00,258.0,262.0,11.09,14.68,,47.59359,-54.27349
2017-11-20 21:40:00+00:00,270.0,273.0,11.36,12.8,,47.59359,-54.27349
2017-11-20 21:50:00+00:00,271.0,272.0,11.81,13.04,,47.59359,-54.27349
2017-11-20 22:00:00+00:00,268.0,263.0,8.93,10.63,,47.59359,-54.27349
2017-11-20 22:10:00+00:00,257.0,259.0,9.71,10.94,,47.59359,-54.27349
2017-11-20 22:20:00+00:00,256.0,251.0,10.54,11.95,,47.59359,-54.27349
2017-11-20 22:30:00+00:00,259.0,256.0,10.65,11.46,,47.59359,-54.27349
2017-11-20 22:40:00+00:00,253.0,252.0,9.24,10.4,,47.59359,-54.27349
2017-11-20 22:50:00+00:00,242.0,240.0,8.45,10.17,,47.59359,-54.27349
2017-11-20 23:00:00+00:00,252.0,256.0,10.16,11.84,,47.59359,-54.27349
2017-11-20 23:10:00+00:00,246.0,252.0,7.55,8.9,,47.59359,-54.27349
2017-11-20 23:20:00+00:00,258.0,255.0,9.84,13.14,,47.59359,-54.27349
2017-11-20 23:30:00+00:00,259.0,257.0,13.07,14.08,,47.59359,-54.27349
2017-11-20 23:40:00+00:00,262.0,259.0,11.84,13.72,,47.59359,-54.27349
2017-11-20 23:50:00+00:00,257.0,265.0,11.07,12.69,,47.59359,-54.27349
